Location: Ballingbuur
(53.0000°N, 5.7667°E)
Time: 13:59:14
(UTC+00:00)

OPS 8737 - Visible Passes

Search period start: 20 April 2021 00:00
Search period end: 30 April 2021 00:00
Orbit: 355 x 1715 km, 63.3° (Epoch: 16 April)

Date Brightness Start Highest point End Pass type
(mag) Time Alt. Az. Time Alt. Az. Time Alt. Az.
20 Apr 7.0 20:36:51 10° W 20:38:43 14° WSW 20:40:49 10° SSW visible
21 Apr 5.7 19:30:50 10° WNW 19:33:42 35° SW 19:37:14 10° SSE visible
22 Apr 7.3 20:15:49 10° W 20:17:18 12° WSW 20:18:55 10° SSW visible
24 Apr 7.5 19:55:03 10° WSW 19:55:50 11° WSW 19:56:39 10° SW visible
